Weather in Kotovo

Russia / Kursk Oblast     51°15′58″N   36°25′41″E
temp.,
°C
wind,
m/s
gust,
m/s
humid.,
%
clouds,
%
prec.,
mm/h
press.,
hPa
HPBL,
m
17 august, wed
wed1700:00+25e61434100 0.0 1013493
03:00+26e6143499 0.0 1012520
06:00+23e71538100 0.0 1012516
09:00+22ese71553100 0.1 1012476
12:00+23ne71347100 0.2 1012492
15:00+29ene91132100 0.2 10111562
18:00+29ne813316 0.0 10091202
21:00+25ene9173857 0.0 1010709
18 august, thu
thu1800:00+23ene7154017 0.0 1010594
03:00+20ne511471 0.0 1010330
06:00+19ne51353100 0.0 1010343
09:00+23ene71045100 0.0 1010658
12:00+27ene683697 0.7 10091132
15:00+29e573458 1.4 10091343
18:00+27e810455 0.1 10101054
21:00+19ne5147627 0.6 1011318
19 august, fri
fri1900:00+19ne5137898 0.0 1012371
03:00+18ene7147587 0.0 1012523
06:00+18ene613745 0.0 1012630
09:00+22ene810595 0.0 1013972
12:00+27e794217 0.0 10131659
15:00+26ene91049100 0.3 10131878
18:00+23ene8115299 0.1 10141089
21:00+18ene713825 0.1 1016553
20 august, sat
sat2000:00+16ene510874 0.0 1016332
03:00+16e3683100 0.1 1015120
06:00+19ese61360100 0.0 1016446
09:00+20ese71364100 0.9 1018637
12:00+25ese91236100 0.2 10181358
15:00+23ese81242100 0.2 1018918
18:00+23e71432100 0.0 1018976
21:00+24e71528100 0.0 10181104
21 august, sun
sun2100:00+23ese81722100 0.0 1017885
03:00+23ese81620100 0.0 1017582
06:00+20ese61423100 0.0 1018480
09:00+22ese7112580 0.0 1018624
12:00+25ese8102396 0.0 1018859
15:00+27ese81020100 0.0 10171548
18:00+26e51024100 0.0 1017533
21:00+23e51424100 0.0 1017461